Location: Strada George Coșbuc
(47.6577°N, 23.5639°E)
Time: 22:13:49
(UTC+03:00)

ISS - Pass Details

Date: 17 September 2017
Orbit: 401 x 407 km, 51.6° (Epoch: 25 September)

Event Time Altitude Azimuth Distance (km) Brightness Sun altitude
Exits shadow 06:12:14 11° 288° (WNW) 1,434 -1.6 -9.7°
Maximum altitude 06:15:22 54° 211° (SSW) 504 -3.6 -9.2°
Drops below altitude 10° 06:18:35 10° 133° (SE) 1,465 -0.5 -8.7°
Sets 06:20:41 0° 129° (SE) 2,322 0.6 -8.3°
